[[{"header":{"parameterUnit":"m.s-1","parameterCategory":1,"la1":30.2991,"la2":30.254,"lo1":-89.0895,"lo2":-89.0444,"dy":0.0017,"dx":0.0017,"nx":28,"ny":28,"refTime":"2024-08-10T09:00:00:Z","depth":0,"parameterNumber":2,"parameterNumberName":"U-component_of_WINDS"},"data":[0,0,0,0,0,0,0,0,0,0,0,0,0,0,0,0,0,0,0,0,0,0,0,0,0,0,0,0,0,0,0,0,0,0,0,0,0,0,0,0,0,0,0,0,0,0,0,0,0,0,0,0,0,0,0,0,0,0,0.2489,0.249,0,0.2592,0.2593,0.2594,0.2678,0.2679,0.268,0.2681,0.2787,0.2789,0.2791,0,0,0,0,0,0,0,0,0,0,0,0,0,0.2367,0.2368,0.2489,0.249,0.2491,0.2591,0.2593,0.2594,0.2678,0.2679,0.268,0.2681,0.2787,0.2789,0.2792,0,0,0,0,0,0,0,0,0,0,0,0,0,0.2439,0.2369,0.2489,0.2545,0.2551,0.2591,0.2593,0.2595,0.2678,0.2679,0.268,0.2682,0.2786,0.2789,0.2792,0.2784,0,0,0.2801,0.2802,0,0,0,0,0,0,0,0,0.2435,0.2444,0.2536,0.2541,0.2548,0.2623,0.2589,0.2658,0.2677,0.263,0.2681,0.2682,0.2732,0.2739,0.2756,0.2789,0.2794,0.2801,0.2803,0.2805,0.2805,0,0,0,0,0,0,0,0.243,0.244,0.253,0.2537,0.2545,0.2566,0.2578,0.2602,0.2672,0.2634,0.264,0.2651,0.2736,0.2753,0.2759,0.2796,0.2801,0.2804,0.2806,0.2807,0.2828,0.2827,0,0,0,0,0,0,0.2416,0.2435,0.2526,0.2533,0.2494,0.2567,0.258,0.2598,0.2672,0.2685,0.265,0.2655,0.2747,0.2755,0.2763,0.276,0.2805,0.2807,0.2809,0.2829,0.2828,0.2827,0,0,0,0,0,0,0.2413,0.2423,0.2522,0.2486,0.25,0.2568,0.2587,0.2599,0.2617,0.2684,0.2697,0.2655,0.2748,0.2759,0.2778,0.2764,0.2809,0.2812,0.2831,0.2829,0.2827,0.2752,0,0,0,0,0,0,0.2409,0.2422,0.2419,0.2485,0.2501,0.2535,0.2586,0.26,0.2621,0.2629,0.2692,0.2704,0.275,0.2773,0.2781,0.2769,0.2814,0.2833,0.283,0.2828,0.2756,0.2748,0.274,0,0,0,0,0,0.2405,0.2394,0.2419,0.2429,0.25,0.2534,0.2544,0.2597,0.262,0.2618,0.2662,0.2702,0.2764,0.2775,0.2784,0.2773,0.2834,0.2831,0.2828,0.2759,0.2749,0.2741,0,0,0,0,0,0,0.2326,0.2404,0.2432,0.2443,0.2481,0.2548,0.2548,0.2584,0.2617,0.2623,0.2687,0.2701,0.2714,0.2745,0.2756,0.277,0.2804,0.2803,0.2749,0.274,0.2732,0.2725,0.2816,0,0,0,0,0,0.231,0.2331,0.2398,0.2401,0.2419,0.248,0.2497,0.2534,0.2577,0.2594,0.2639,0.2679,0.2708,0.2725,0.2755,0.276,0.2776,0.2757,0.275,0.2743,0.2742,0.2747,0.2739,0.2817,0.2817,0.2817,0,0,0.2277,0.2322,0.2332,0.2386,0.2421,0.2441,0.2493,0.2513,0.2529,0.2597,0.2618,0.2652,0.2701,0.2713,0.2721,0.274,0.2723,0.2739,0.2733,0.2736,0.2743,0.2736,0.2729,0.2815,0.2816,0.2816,0,0,0.2228,0.2264,0.227,0.2303,0.2354,0.2395,0.2396,0.2457,0.2483,0.2505,0.2556,0.2576,0.2624,0.2657,0.268,0.2642,0.2681,0.265,0.261,0.2615,0.2609,0.2603,0.259,0.2585,0.2649,0.2648,0.2648,0,0.2181,0.2214,0.2269,0.2286,0.2308,0.237,0.2377,0.2407,0.2465,0.2479,0.2499,0.2561,0.2598,0.2619,0.261,0.2626,0.263,0.2644,0.2605,0.26,0.2596,0.2585,0.2579,0.2644,0.2645,0.2645,0.2646,0,0.2153,0.2175,0.2174,0.2228,0.2251,0.2263,0.232,0.2336,0.2371,0.241,0.2431,0.2478,0.2519,0.2526,0.2561,0.2552,0.2562,0.2593,0.2629,0.2584,0.2574,0.257,0.2639,0.264,0.2641,0.2642,0,0,0.2058,0.2142,0.2141,0.2166,0.2227,0.2245,0.2259,0.2299,0.2311,0.2349,0.2363,0.2402,0.243,0.2456,0.2495,0.2498,0.2466,0.2529,0.2531,0.2516,0.2459,0.2436,0.243,0.2491,0.249,0.249,0.2455,0,0.2019,0.2049,0.2099,0.2112,0.2133,0.2191,0.2204,0.2242,0.2278,0.2302,0.2342,0.2368,0.2403,0.242,0.2425,0.2468,0.2455,0.2471,0.2505,0.2506,0.2492,0.2425,0.2401,0.2366,0.2451,0.2451,0.245,0,0.1978,0.2012,0.2027,0.2085,0.2096,0.2106,0.2146,0.2168,0.2212,0.2238,0.2266,0.2309,0.2327,0.2359,0.2386,0.2396,0.2412,0.2435,0.2435,0.2441,0.2476,0.2429,0.2356,0.235,0.2445,0.2445,0.2445,0,0.1908,0.1957,0.1973,0.1992,0.2061,0.2067,0.2096,0.2141,0.2162,0.2196,0.221,0.2247,0.2267,0.2294,0.2345,0.2363,0.2366,0.2402,0.2388,0.2387,0.2387,0.2387,0.2316,0.2396,0.2396,0.2396,0.2397,0,0.1859,0.1866,0.1942,0.1951,0.1961,0.2019,0.2027,0.2061,0.2101,0.2118,0.2171,0.2186,0.2252,0.2275,0.2315,0.2331,0.2339,0.2361,0.2372,0.2357,0.2354,0.2369,0.2373,0.2395,0.2395,0.2396,0.2396,0,0.1783,0.1834,0.1855,0.1917,0.1933,0.1938,0.1992,0.2003,0.2042,0.2063,0.2071,0.2132,0.2162,0.2215,0.226,0.2286,0.2294,0.2312,0.2279,0.2286,0.2269,0.227,0.2206,0.2201,0.2283,0.2283,0.2282,0,0.1749,0.1756,0.1819,0.1834,0.1861,0.1885,0.1906,0.1962,0.1982,0.2033,0.2038,0.2072,0.2102,0.2146,0.2195,0.2229,0.2249,0.2224,0.2254,0.2239,0.2249,0.2248,0.2249,0.2217,0.2216,0.2215,0.2214,0,0.1683,0.1708,0.1736,0.1772,0.1796,0.1827,0.1861,0.1871,0.1935,0.1954,0.1985,0.2008,0.2053,0.2086,0.2127,0.2158,0.2196,0.2204,0.2203,0.2188,0.2168,0.2179,0.2261,0.2205,0.2206,0.2207,0.2207,0.2208,0.1628,0.1637,0.1683,0.1712,0.1743,0.1774,0.1788,0.1828,0.1854,0.1895,0.1927,0.1955,0.2,0.2059,0.2086,0.2109,0.2128,0.2126,0.2125,0.2124,0.2118,0.2164,0.2117,0.2117,0.2118,0.2118,0.2118,0,0.1566,0.1598,0.1624,0.167,0.1693,0.1727,0.1766,0.1783,0.1807,0.1845,0.1873,0.1908,0.194,0.199,0.2026,0.2035,0.2053,0.2042,0.2042,0.2049,0.21,0.2097,0.2026,0.2026,0.2026,0.2026,0.2026,0.2026,0.1536,0.1553,0.1582,0.1615,0.1648,0.1676,0.1695,0.1724,0.1754,0.1791,0.1817,0.1849,0.1892,0.1931,0.1962,0.1976,0.1987,0.197,0.199,0.2037,0.2045,0.2053,0.2052,0.1972,0.1972,0.1937,0.1937,0.1936]},{"header":{"parameterUnit":"m.s-1","parameterCategory":1,"la1":30.2991,"la2":30.254,"lo1":-89.0895,"lo2":-89.0444,"dy":0.0017,"dx":0.0017,"nx":28,"ny":28,"refTime":"2024-08-10T09:00:00:Z","depth":0,"parameterNumber":3,"parameterNumberName":"V-component_of_WINDS"},"data":[0,0,0,0,0,0,0,0,0,0,0,0,0,0,0,0,0,0,0,0,0,0,0,0,0,0,0,0,0,0,0,0,0,0,0,0,0,0,0,0,0,0,0,0,0,0,0,0,0,0,0,0,0,0,0,0,0,0,2.8894,2.8894,0,2.894,2.894,2.8941,2.8991,2.8991,2.8992,2.8993,2.9036,2.9036,2.9037,0,0,0,0,0,0,0,0,0,0,0,0,0,2.8844,2.8844,2.8894,2.8894,2.8895,2.894,2.894,2.8941,2.8991,2.8991,2.8992,2.8993,2.9036,2.9036,2.9037,0,0,0,0,0,0,0,0,0,0,0,0,0,2.8875,2.8845,2.8894,2.8925,2.8928,2.894,2.894,2.8941,2.899,2.8991,2.8992,2.8994,2.9035,2.9036,2.9037,2.902,0,0,2.9039,2.9039,0,0,0,0,0,0,0,0,2.8873,2.8877,2.892,2.8923,2.8927,2.8961,2.8939,2.8967,2.899,2.8967,2.8993,2.8994,2.901,2.9013,2.9019,2.9022,2.9023,2.9039,2.904,2.904,2.904,0,0,0,0,0,0,0,2.8871,2.8875,2.8912,2.892,2.8925,2.8935,2.8941,2.8944,2.8981,2.8969,2.8973,2.8978,2.9012,2.9018,2.902,2.9024,2.9039,2.904,2.904,2.904,2.9012,2.9011,0,0,0,0,0,0,2.8865,2.8873,2.891,2.8913,2.8902,2.8935,2.8942,2.8949,2.8982,2.8988,2.8977,2.898,2.9016,2.9019,2.9022,2.9002,2.904,2.904,2.9041,2.9014,2.9012,2.9011,0,0,0,0,0,0,2.8863,2.8868,2.8909,2.8894,2.89,2.8935,2.8942,2.8949,2.8955,2.8987,2.8994,2.8976,2.9017,2.9021,2.9019,2.9004,2.9041,2.9041,2.9015,2.9013,2.9012,2.8963,0,0,0,0,0,0,2.8862,2.8867,2.8862,2.8894,2.8901,2.8907,2.8942,2.8949,2.8957,2.8961,2.8989,2.8995,2.9018,2.9018,2.902,2.9006,2.9042,2.9016,2.9014,2.9012,2.8966,2.896,2.8954,0,0,0,0,0,2.886,2.8846,2.8861,2.8866,2.8896,2.8906,2.891,2.8939,2.8955,2.895,2.897,2.8994,2.9006,2.9018,2.902,2.9006,2.9018,2.9015,2.9012,2.8969,2.8961,2.8955,0,0,0,0,0,0,2.8811,2.8851,2.8868,2.8865,2.8882,2.8914,2.8908,2.893,2.8941,2.8945,2.8979,2.8985,2.8979,2.8992,2.9005,2.899,2.9015,2.9013,2.8981,2.8974,2.8968,2.8964,2.9043,0,0,0,0,0,2.8799,2.8806,2.884,2.8834,2.8841,2.8873,2.8879,2.8899,2.8918,2.8925,2.8945,2.8961,2.8968,2.8972,2.898,2.8969,2.8974,2.896,2.8954,2.8949,2.8946,2.8939,2.8932,2.9002,2.9002,2.9002,0,0,2.8776,2.8799,2.8801,2.8824,2.884,2.8844,2.8879,2.8882,2.8885,2.8925,2.8925,2.894,2.896,2.8952,2.895,2.8964,2.8928,2.8946,2.8942,2.8941,2.8935,2.8929,2.8923,2.9,2.9001,2.9001,0,0,2.8735,2.8754,2.875,2.8765,2.8788,2.8809,2.8808,2.8837,2.8849,2.885,2.8879,2.8882,2.8895,2.8907,2.8914,2.8877,2.8898,2.8878,2.8847,2.884,2.8834,2.8829,2.8814,2.8808,2.8876,2.8876,2.8876,0,2.8703,2.8712,2.8745,2.8746,2.8754,2.8792,2.8786,2.8798,2.8822,2.8826,2.8842,2.8857,2.8873,2.8868,2.8858,2.8864,2.8862,2.8875,2.8832,2.8828,2.8824,2.8809,2.8804,2.8873,2.8873,2.8874,2.8874,0,2.867,2.8675,2.8669,2.8692,2.87,2.8697,2.8728,2.8731,2.8751,2.877,2.8769,2.8789,2.8801,2.8802,2.8821,2.8799,2.8806,2.8827,2.8852,2.8814,2.8801,2.8796,2.8869,2.887,2.8871,2.8872,0,0,2.86,2.864,2.8637,2.8647,2.8675,2.8679,2.8677,2.869,2.8692,2.8707,2.8705,2.8714,2.8732,2.8741,2.8761,2.8755,2.8721,2.8776,2.8776,2.8763,2.8695,2.8678,2.8672,2.8736,2.8735,2.8734,2.8693,0,2.8562,2.8563,2.8592,2.8584,2.8588,2.8623,2.8621,2.8637,2.8654,2.8658,2.8677,2.8682,2.8707,2.8712,2.8707,2.8726,2.8707,2.873,2.8732,2.8732,2.8724,2.8665,2.8648,2.8608,2.8688,2.8687,2.8687,0,2.8519,2.8532,2.8525,2.8551,2.8554,2.8552,2.8565,2.857,2.8587,2.86,2.8609,2.8633,2.8631,2.8656,2.8653,2.8667,2.867,2.8679,2.8678,2.8678,2.8706,2.8661,2.8596,2.8589,2.8679,2.868,2.868,0,2.8466,2.8481,2.8478,2.8486,2.8518,2.8515,2.8527,2.8547,2.8552,2.8563,2.8566,2.8577,2.8582,2.8589,2.8613,2.863,2.8606,2.8634,2.8615,2.8614,2.8607,2.8607,2.8539,2.8612,2.8612,2.8612,2.8612,0,2.842,2.8414,2.8455,2.8453,2.8445,2.8478,2.8469,2.8485,2.8501,2.8501,2.8532,2.8531,2.8565,2.8568,2.8587,2.858,2.8583,2.8591,2.8596,2.8588,2.8586,2.8589,2.8591,2.8611,2.8611,2.8611,2.8611,0,2.8359,2.8387,2.8385,2.8415,2.8422,2.8415,2.844,2.8438,2.8457,2.8456,2.8458,2.8487,2.8492,2.8517,2.8528,2.8541,2.8525,2.8537,2.852,2.8523,2.8501,2.8502,2.8431,2.8422,2.8502,2.8501,2.8501,0,2.8327,2.8323,2.8352,2.8355,2.8366,2.837,2.8376,2.8407,2.8411,2.843,2.8425,2.8432,2.8439,2.8444,2.8465,2.8472,2.8483,2.8458,2.8484,2.8475,2.848,2.8479,2.8478,2.8451,2.845,2.8449,2.8449,0,2.8267,2.8281,2.8288,2.83,2.8306,2.8316,2.8328,2.8329,2.8362,2.8365,2.837,2.8376,2.8386,2.8391,2.8402,2.8414,2.8436,2.844,2.8436,2.8426,2.8415,2.8419,2.8502,2.8442,2.8442,2.8443,2.8443,2.8443,2.8219,2.8216,2.8235,2.8242,2.8254,2.8264,2.8264,2.8282,2.8288,2.8299,2.8317,2.8318,2.8334,2.8351,2.8361,2.8361,2.8375,2.8369,2.8367,2.8364,2.8359,2.8417,2.8364,2.8364,2.8364,2.8364,2.8365,0,2.8158,2.8172,2.8178,2.8194,2.8199,2.8221,2.8235,2.8237,2.8239,2.8252,2.8258,2.8263,2.8268,2.829,2.8297,2.8293,2.8303,2.8293,2.8293,2.8295,2.8348,2.835,2.8285,2.8285,2.8285,2.8285,2.8285,2.8285,2.8127,2.8123,2.8138,2.8139,2.8153,2.8156,2.8162,2.817,2.8181,2.8185,2.819,2.8204,2.822,2.8229,2.8234,2.824,2.824,2.8226,2.8235,2.8284,2.8291,2.8299,2.8301,2.8227,2.8227,2.8182,2.8182,2.8181]}]]